Simultaneous Nadir Overpasses (SNOs) Predictions

Prediction of SNOs between METOP-A and NOAA-19 Satellite Orbit:

Table of predicted SNOs for the next 14.0 days since TLE Epoch: 4/13/2017
Index Date (METOP-A) Time (METOP-A) Lat,Lon (METOP-A) SZA (METOP-A ) Date (NOAA-19) Time (NOAA-19) Lat,Lon (NOAA-19) SZA (NOAA-19 ) Distance(km) Time Diff (sec)
1 04/16/2017 01:01:03 -77.09, -11.44 113.09 04/16/2017 00:59:54 -77.13, -11.45 113.05 4.16 69
2 04/16/2017 01:51:43 77.07, 155.84 66.89 04/16/2017 01:50:55 77.08, 155.99 66.90 3.95 48
3 04/16/2017 02:42:25 -77.07, -36.86 113.13 04/16/2017 02:41:55 -77.10, -36.83 113.10 3.20 30
4 04/16/2017 03:33:04 77.10, 130.60 66.89 04/16/2017 03:32:57 77.10, 130.42 66.89 4.47 7
5 04/16/2017 04:23:47 -77.05, -62.27 113.18 04/16/2017 04:23:56 -77.07, -62.21 113.16 2.63 9
6 04/16/2017 05:14:27 77.04, 105.00 66.80 04/16/2017 05:14:58 77.07, 105.04 66.84 3.69 31
7 04/16/2017 06:05:09 -77.03, -87.69 113.22 04/16/2017 06:05:57 -77.04, -87.59 113.21 2.71 48
8 04/16/2017 06:55:49 77.02, 79.58 66.76 04/16/2017 06:56:59 77.04, 79.66 66.79 3.18 70
9 04/26/2017 18:38:15 77.14, -95.55 63.36 04/26/2017 18:37:00 77.15, -95.56 63.36 1.50 75
10 04/26/2017 19:28:57 -77.14, 71.78 116.66 04/26/2017 19:28:02 -77.13, 71.80 116.67 1.52 55
11 04/26/2017 20:19:37 77.12,-120.97 63.31 04/26/2017 20:19:01 77.13,-120.94 63.32 0.99 36
12 04/26/2017 21:10:19 -77.12, 46.36 116.70 04/26/2017 21:10:03 -77.10, 46.42 116.72 2.76 16
13 04/26/2017 22:00:59 77.10,-146.39 63.27 04/26/2017 22:01:02 77.10,-146.32 63.27 1.66 3
14 04/26/2017 22:51:41 -77.10, 20.94 116.74 04/26/2017 22:52:05 -77.12, 20.85 116.73 2.69 24
15 04/26/2017 23:42:21 77.08,-171.81 63.23 04/26/2017 23:43:03 77.07,-171.71 63.22 2.74 42
16 04/27/2017 00:33:03 -77.08, -4.47 116.79 04/27/2017 00:34:06 -77.09, -4.53 116.78 1.49 63
17 04/27/2017 01:23:51 76.71, 161.36 62.81 04/27/2017 01:24:58 76.79, 164.02 62.95 68.21 67




NCC Satellite Simultaneous Nadir Overpasses (SNOs) Prediction Service
